Regional Weather Roundup
Issued by NWS Sterling, VA

Home | Current Version | Previous Version | Text Only | Print | Product List | Glossary On
Versions: 1 2 3 4 5 6 7 8 9 10 11 12 13 14 15 16 17 18 19 20 21 22 23 24 25 26 27 28 29 30 31 32 33 34 35 36 37 38 39 40 41 42 43 44 45 46 47 48 49 50
773
ASUS41 KLWX 170611
RWRLWX

REGIONAL WEATHER ROUNDUP
NATIONAL WEATHER SERVICE BALTIMORE MD/WASHINGTON DC
200 AM EDT TUE OCT 17 2017

Note: "FAIR" indicates few or no clouds below 12,000 feet
with no significant weather and/or obstructions to visibility.
 TC=TEMPERATURE CELSIUS

 * =Non NWS site. Station does not report precipitation (e.g. rain,
    snow, etc.), thunder, or fog.

DCZ001-MDZ009-015-VAZ040>042-051-053>054-170700-
WASHINGTON METRO

CITY           SKY/WX    TMP DP  RH WIND       PRES   REMARKS
WASHINGTON NAT CLEAR     50  38  63 NW7       30.28R
DULLES         CLEAR     49  36  61 N10       30.27R
ANDREWS AFB    CLEAR     48  37  64 N8        30.26R
FT BELVOIR     CLEAR     48  37  66 NW5       30.27R
QUANTICO       PTCLDY    48  39  71 NW7       30.28S
COLLEGE PARK*  CLEAR     44  39  85 CALM      30.27R
LEESBURG*      CLEAR     46  37  71 CALM      30.29R
MANASSAS*      CLEAR     42  36  79 CALM      30.28S
GAITHERSBURG*  CLEAR     41  39  93 CALM      30.27S

$$

MDZ006>007-011-014-170700-
BALTIMORE METRO

CITY           SKY/WX    TMP DP  RH WIND       PRES   REMARKS
BWI AIRPORT    PTCLDY    46  38  73 NW3       30.26R
MD SCIENCE CTR   N/A     53  35  50 MISG      30.27R
MARTIN STATE   CLEAR     46  39  76 NW3       30.28S
ANNAPOLIS      CLEAR     54  44  69 N8        30.26R
FORT MEADE*    CLEAR     41  39  93 CALM      30.29S

$$

MDZ012-015-019>023-170700-
MARYLAND EASTERN SHORE

CITY           SKY/WX    TMP DP  RH WIND       PRES   REMARKS
OCEAN CITY     CLEAR     53  41  63 N9G20     30.22S
SALISBURY      CLEAR     46  42  86 N7        30.23R
CAMBRIDGE*     CLEAR     50  43  76 N7        30.24S
EASTON*        CLEAR     48  40  74 NE9       30.29R

$$

MDZ017>025-170700-
SOUTHERN MARYLAND

CITY           SKY/WX    TMP DP  RH WIND       PRES   REMARKS
PATUXENT RIVER CLEAR     53  41  63 NW14      30.23S
ST INIGOES     CLEAR     54  39  57 VRB7      30.23R
LEONARDTOWN*   NOT AVBL

$$

MDZ003>005-170700-
NORTH CENTRAL MARYLAND

CITY           SKY/WX    TMP DP  RH WIND       PRES   REMARKS
FREDERICK*     CLEAR     46  34  61 CALM      30.30S
HAGERSTOWN APT CLEAR     45  34  65 W5        30.28R
WESTMINSTER*   CLEAR     46  36  66 N3        30.26F

$$

MDZ501>502-170700-
WESTERN MARYLAND

CITY           SKY/WX    TMP DP  RH WIND       PRES   REMARKS
OAKLAND*       CLEAR     36  32  87 CALM      30.23F
CUMBERLAND*    CLEAR     43  41  93 CALM      30.34S

$$

VAZ025>031-170700-
SHENANDOAH VALLEY

CITY           SKY/WX    TMP DP  RH WIND       PRES   REMARKS
WINCHESTER*    CLEAR     41  34  75 NW5       30.29S
FRONT ROYAL*   CLEAR     43  37  81 MISG      30.29R
LURAY*         CLEAR     41  37  87 CALM      30.29R
NEW MARKET*    CLEAR     39  37  92 CALM      30.30R
STAUNTON*      CLEAR     37  35  90 CALM      30.30S
WAYNESBORO*    CLEAR     39  38  96 E5        30.29S

$$

WVZ021-048>050-054>055-170700-
EASTERN WEST VIRGINIA PANHANDLE

CITY           SKY/WX    TMP DP  RH WIND       PRES   REMARKS
MARTINSBURG    CLEAR     46  33  60 NW5       30.28S
PETERSBURG*    CLEAR     36  35  98 CALM      30.31S

$$

VAZ036>039-050-170700-
CENTRAL FOOTHILLS

CITY           SKY/WX    TMP DP  RH WIND       PRES   REMARKS
CHARLOTTESVILL CLEAR     46  39  76 CALM      30.27S
CULPEPER*      CLEAR     42  37  80 NW3       30.29R
ORANGE*        CLEAR     46  36  66 CALM      30.28S
GORDONSVILLE*  CLEAR     41  41  99 CALM      30.28S
WARRENTON*     CLEAR     40  35  80 CALM      30.27S

$$

VAZ055>057-170700-
NORTH AND CENTRAL PIEDMONT

CITY           SKY/WX    TMP DP  RH WIND       PRES   REMARKS
FREDERICKSBRG* CLEAR     49  40  70 NW7       30.27R
STAFFORD*      PTCLDY    42  40  94 CALM      30.32R

$$

NCZ024-NYZ072-PAZ021-071-VAZ022-071-170700-
OTHER REGIONAL OBSERVATIONS

CITY           SKY/WX    TMP DP  RH WIND       PRES   REMARKS
NEW YORK CITY  CLEAR     46  30  53 VRB5      30.26R
PHILADELPHIA   CLEAR     46  35  65 N3        30.28R
PITTSBURGH     CLEAR     38  35  89 CALM      30.29S
ROANOKE        CLEAR     44  40  85 W3        30.31S
RICHMOND       CLEAR     47  40  76 N7        30.25S
RALEIGH        PTCLDY    50  43  77 N5        30.25S

$$

ANZ530>537-170700-
MARINE OBSERVATIONS

STATION/POSITION TIME  TEMP    WIND        PRES
                       AIR SEA DIR/SP/G
                 (UTC) (F)     (DEG/KT/KT) (MB)
THOMAS PT LIGHT  0600   56 69  360/ 17/ 21   N/A
BALT KEY BRIDGE  0548          360/ 10/ 12 1024.7R
COVE POINT       0548           10/ 18/ 26 1024.3R
LEWISETTA        0536      66   10/ 15/ 21 1023.7R
SOLOMONS ISLAND  0536      70  340/ 10/ 13 1023.6R
PINEY POINT      0548           20/ 11/ 13   N/A

$$





USA.gov is the U.S. government's official web portal to all federal, state and local government web resources and services.